Saint Bonnet de Bellac- Haute Vienne - France
Donnes mto: dimanche, 04/12/2011
Date Horaire Temp. E. Hum. E. P.atmo. Pluie Vent Direction Direction Ensoleilleme Solaire P. de rose Temp au vent Rafales
04/12/2011 00:00 10,8 C 96 % 1014,4 hPa 0,0 mm 4,0 km/h (1 Bft) O-SO 247 0 min 0 W/m 10,2 C 10,8 C 4,0 km/h (1 Bft)
04/12/2011 00:05 10,8 C 96 % 1014,4 hPa 0,0 mm 5,0 km/h (1 Bft) O-SO 247 0 min 0 W/m 10,2 C 10,8 C 8,6 km/h (2 Bft)
04/12/2011 00:10 10,8 C 96 % 1014,4 hPa 0,0 mm 6,8 km/h (2 Bft) SO 225 0 min 0 W/m 10,2 C 10,8 C 12,6 km/h (3 Bft)
04/12/2011 00:15 10,8 C 96 % 1014,4 hPa 0,0 mm 5,4 km/h (2 Bft) S-SO 202 0 min 0 W/m 10,2 C 10,8 C 10,4 km/h (2 Bft)
04/12/2011 00:20 10,8 C 96 % 1014,4 hPa 0,0 mm 5,8 km/h (2 Bft) O-SO 247 0 min 0 W/m 10,2 C 10,8 C 11,2 km/h (2 Bft)
04/12/2011 00:25 10,7 C 96 % 1014,4 hPa 0,0 mm 11,5 km/h (2 Bft) O-SO 247 0 min 0 W/m 10,1 C 10,7 C 16,6 km/h (3 Bft)
04/12/2011 00:30 10,7 C 96 % 1014,3 hPa 0,0 mm 7,2 km/h (2 Bft) SO 225 0 min 0 W/m 10,1 C 10,7 C 9,4 km/h (2 Bft)
04/12/2011 00:35 10,7 C 96 % 1014,3 hPa 0,0 mm 7,2 km/h (2 Bft) SO 225 0 min 0 W/m 10,1 C 10,7 C 14,0 km/h (3 Bft)
04/12/2011 00:40 10,7 C 95 % 1014,3 hPa 0,0 mm 4,3 km/h (1 Bft) SO 225 0 min 0 W/m 9,9 C 10,7 C 8,6 km/h (2 Bft)
04/12/2011 00:45 10,6 C 95 % 1014,3 hPa 0,0 mm 4,3 km/h (1 Bft) SO 225 0 min 0 W/m 9,8 C 10,6 C 6,8 km/h (2 Bft)
04/12/2011 00:50 10,6 C 95 % 1014,3 hPa 0,0 mm 4,3 km/h (1 Bft) SO 225 0 min 0 W/m 9,8 C 10,6 C 4,3 km/h (1 Bft)
04/12/2011 00:55 10,6 C 95 % 1014,2 hPa 0,0 mm 6,1 km/h (2 Bft) O-SO 247 0 min 0 W/m 9,8 C 10,6 C 13,7 km/h (3 Bft)
04/12/2011 01:00 10,6 C 95 % 1014,2 hPa 0,0 mm 2,5 km/h (1 Bft) SO 225 0 min 0 W/m 9,8 C 10,6 C 4,0 km/h (1 Bft)
04/12/2011 01:05 10,6 C 95 % 1014,4 hPa 0,0 mm 3,2 km/h (1 Bft) SO 225 0 min 0 W/m 9,8 C 10,6 C 4,3 km/h (1 Bft)
04/12/2011 01:10 10,6 C 96 % 1014,2 hPa 0,1 mm 5,4 km/h (2 Bft) SO 225 0 min 0 W/m 10,0 C 10,6 C 6,5 km/h (2 Bft)
04/12/2011 01:15 10,6 C 96 % 1014,2 hPa 0,1 mm 1,8 km/h (1 Bft) SO 225 0 min 0 W/m 10,0 C 10,6 C 2,9 km/h (1 Bft)
04/12/2011 01:20 10,6 C 96 % 1014,2 hPa 0,0 mm 4,3 km/h (1 Bft) O-SO 247 0 min 0 W/m 10,0 C 10,6 C 8,3 km/h (2 Bft)
04/12/2011 01:25 10,6 C 96 % 1014,2 hPa 0,2 mm 7,2 km/h (2 Bft) SO 225 0 min 0 W/m 10,0 C 10,6 C 7,2 km/h (2 Bft)
04/12/2011 01:30 10,6 C 96 % 1014,2 hPa 0,0 mm 4,0 km/h (1 Bft) O-SO 247 0 min 0 W/m 10,0 C 10,6 C 7,6 km/h (2 Bft)
04/12/2011 01:35 10,6 C 96 % 1014,2 hPa 0,0 mm 7,6 km/h (2 Bft) SO 225 0 min 0 W/m 10,0 C 10,6 C 11,9 km/h (2 Bft)
04/12/2011 01:40 10,6 C 96 % 1014,1 hPa 0,0 mm 3,2 km/h (1 Bft) O-SO 247 0 min 0 W/m 10,0 C 10,6 C 8,6 km/h (2 Bft)
04/12/2011 01:45 10,5 C 96 % 1014,1 hPa 0,0 mm 5,8 km/h (2 Bft) O-SO 247 0 min 0 W/m 9,9 C 10,5 C 7,9 km/h (2 Bft)
04/12/2011 01:50 10,5 C 96 % 1014,1 hPa 0,0 mm 8,3 km/h (2 Bft) S-SO 202 0 min 0 W/m 9,9 C 10,5 C 15,5 km/h (3 Bft)
04/12/2011 01:55 10,5 C 96 % 1014,1 hPa 0,0 mm 6,1 km/h (2 Bft) SO 225 0 min 0 W/m 9,9 C 10,5 C 7,9 km/h (2 Bft)
04/12/2011 02:02 10,4 C 95 % 1014,1 hPa 0,0 mm 5,4 km/h (2 Bft) SO 225 0 min 0 W/m 9,6 C 10,4 C 9,4 km/h (2 Bft)
04/12/2011 02:05 10,4 C 95 % 1014,0 hPa 0,1 mm 4,3 km/h (1 Bft) S-SO 202 0 min 0 W/m 9,6 C 10,4 C 7,2 km/h (2 Bft)
04/12/2011 02:10 10,4 C 95 % 1014,0 hPa 0,0 mm 6,1 km/h (2 Bft) SO 225 0 min 0 W/m 9,6 C 10,4 C 6,5 km/h (2 Bft)
04/12/2011 02:15 10,4 C 95 % 1014,0 hPa 0,0 mm 1,8 km/h (1 Bft) O-SO 247 0 min 0 W/m 9,6 C 10,4 C 3,6 km/h (1 Bft)
04/12/2011 02:20 10,4 C 95 % 1014,0 hPa 0,1 mm 10,1 km/h (2 Bft) O-SO 247 0 min 0 W/m 9,6 C 10,4 C 14,4 km/h (3 Bft)
04/12/2011 02:25 10,4 C 95 % 1014,0 hPa 0,0 mm 5,4 km/h (2 Bft) SO 225 0 min 0 W/m 9,6 C 10,4 C 12,2 km/h (2 Bft)
04/12/2011 02:30 10,4 C 95 % 1014,0 hPa 0,0 mm 8,6 km/h (2 Bft) SO 225 0 min 0 W/m 9,6 C 10,4 C 11,2 km/h (2 Bft)
04/12/2011 02:35 10,4 C 95 % 1014,0 hPa 0,0 mm 4,7 km/h (1 Bft) SO 225 0 min 0 W/m 9,6 C 10,4 C 9,7 km/h (2 Bft)
04/12/2011 02:40 10,4 C 95 % 1014,1 hPa 0,0 mm 8,6 km/h (2 Bft) O 270 0 min 0 W/m 9,6 C 10,4 C 13,0 km/h (3 Bft)
04/12/2011 02:45 10,4 C 95 % 1014,1 hPa 0,0 mm 6,1 km/h (2 Bft) SO 225 0 min 0 W/m 9,6 C 10,4 C 10,1 km/h (2 Bft)
04/12/2011 02:50 10,4 C 95 % 1014,1 hPa 0,0 mm 4,7 km/h (1 Bft) SO 225 0 min 0 W/m 9,6 C 10,4 C 4,7 km/h (1 Bft)
04/12/2011 02:55 10,4 C 95 % 1014,0 hPa 0,0 mm 9,4 km/h (2 Bft) SO 225 0 min 0 W/m 9,6 C 10,4 C 11,5 km/h (2 Bft)
04/12/2011 03:00 10,4 C 95 % 1014,1 hPa 0,1 mm 4,3 km/h (1 Bft) S-SO 202 0 min 0 W/m 9,6 C 10,4 C 8,6 km/h (2 Bft)
04/12/2011 03:05 10,4 C 95 % 1014,1 hPa 0,0 mm 7,6 km/h (2 Bft) S-SO 202 0 min 0 W/m 9,6 C 10,4 C 13,7 km/h (3 Bft)
04/12/2011 03:10 10,4 C 95 % 1014,1 hPa 0,0 mm 4,3 km/h (1 Bft) S-SO 202 0 min 0 W/m 9,6 C 10,4 C 6,5 km/h (2 Bft)
04/12/2011 03:15 10,4 C 95 % 1014,2 hPa 0,0 mm 9,0 km/h (2 Bft) O-SO 247 0 min 0 W/m 9,6 C 10,4 C 10,4 km/h (2 Bft)
04/12/2011 03:20 10,4 C 95 % 1014,3 hPa 0,0 mm 2,9 km/h (1 Bft) S 180 0 min 0 W/m 9,6 C 10,4 C 7,2 km/h (2 Bft)
04/12/2011 03:25 10,4 C 95 % 1014,3 hPa 0,0 mm 5,8 km/h (2 Bft) S-SO 202 0 min 0 W/m 9,6 C 10,4 C 8,6 km/h (2 Bft)
04/12/2011 03:30 10,4 C 95 % 1014,3 hPa 0,0 mm 4,7 km/h (1 Bft) SO 225 0 min 0 W/m 9,6 C 10,4 C 4,7 km/h (1 Bft)
04/12/2011 03:35 10,5 C 95 % 1014,2 hPa 0,0 mm 4,0 km/h (1 Bft) SO 225 0 min 0 W/m 9,7 C 10,5 C 4,0 km/h (1 Bft)
04/12/2011 03:40 10,5 C 95 % 1014,2 hPa 0,0 mm 3,6 km/h (1 Bft) O-SO 247 0 min 0 W/m 9,7 C 10,5 C 3,6 km/h (1 Bft)
04/12/2011 03:45 10,5 C 95 % 1014,1 hPa 0,0 mm 6,1 km/h (2 Bft) SO 225 0 min 0 W/m 9,7 C 10,5 C 10,8 km/h (2 Bft)
04/12/2011 03:50 10,5 C 95 % 1014,2 hPa 0,0 mm 7,2 km/h (2 Bft) SO 225 0 min 0 W/m 9,7 C 10,5 C 7,2 km/h (2 Bft)
04/12/2011 03:55 10,5 C 95 % 1014,1 hPa 0,0 mm 2,9 km/h (1 Bft) SO 225 0 min 0 W/m 9,7 C 10,5 C 7,2 km/h (2 Bft)
04/12/2011 04:00 10,6 C 96 % 1014,0 hPa 0,1 mm 6,8 km/h (2 Bft) SO 225 0 min 0 W/m 10,0 C 10,6 C 11,2 km/h (2 Bft)
04/12/2011 04:05 10,6 C 96 % 1013,9 hPa 0,0 mm 4,3 km/h (1 Bft) SO 225 0 min 0 W/m 10,0 C 10,6 C 4,3 km/h (1 Bft)
04/12/2011 04:10 10,6 C 96 % 1013,9 hPa 0,0 mm 4,7 km/h (1 Bft) S-SO 202 0 min 0 W/m 10,0 C 10,6 C 4,7 km/h (1 Bft)
04/12/2011 04:15 10,6 C 96 % 1013,8 hPa 0,0 mm 6,8 km/h (2 Bft) O-SO 247 0 min 0 W/m 10,0 C 10,6 C 15,1 km/h (3 Bft)
04/12/2011 04:20 10,6 C 96 % 1013,7 hPa 0,0 mm 6,5 km/h (2 Bft) O-SO 247 0 min 0 W/m 10,0 C 10,6 C 11,9 km/h (2 Bft)
04/12/2011 04:25 10,6 C 96 % 1013,7 hPa 0,0 mm 4,7 km/h (1 Bft) O-SO 247 0 min 0 W/m 10,0 C 10,6 C 8,6 km/h (2 Bft)
04/12/2011 04:30 10,6 C 96 % 1013,7 hPa 0,1 mm 7,2 km/h (2 Bft) SO 225 0 min 0 W/m 10,0 C 10,6 C 13,3 km/h (3 Bft)
04/12/2011 04:35 10,6 C 96 % 1013,8 hPa 0,0 mm 6,1 km/h (2 Bft) S-SO 202 0 min 0 W/m 10,0 C 10,6 C 10,1 km/h (2 Bft)
04/12/2011 04:40 10,7 C 96 % 1013,9 hPa 0,0 mm 3,6 km/h (1 Bft) S-SO 202 0 min 0 W/m 10,1 C 10,7 C 3,6 km/h (1 Bft)
04/12/2011 04:45 10,8 C 96 % 1013,9 hPa 0,0 mm 4,0 km/h (1 Bft) SO 225 0 min 0 W/m 10,2 C 10,8 C 6,5 km/h (2 Bft)
04/12/2011 04:50 10,8 C 96 % 1013,8 hPa 0,0 mm 3,6 km/h (1 Bft) S-SO 202 0 min 0 W/m 10,2 C 10,8 C 10,1 km/h (2 Bft)
04/12/2011 04:55 10,8 C 96 % 1013,7 hPa 0,0 mm 5,8 km/h (2 Bft) S-SO 202 0 min 0 W/m 10,2 C 10,8 C 9,4 km/h (2 Bft)
04/12/2011 05:00 10,8 C 96 % 1013,6 hPa 0,0 mm 10,1 km/h (2 Bft) SO 225 0 min 0 W/m 10,2 C 10,8 C 10,1 km/h (2 Bft)
04/12/2011 05:05 10,8 C 96 % 1013,6 hPa 0,0 mm 7,9 km/h (2 Bft) O-SO 247 0 min 0 W/m 10,2 C 10,8 C 10,8 km/h (2 Bft)
04/12/2011 05:10 10,8 C 96 % 1013,5 hPa 0,0 mm 4,0 km/h (1 Bft) O-SO 247 0 min 0 W/m 10,2 C 10,8 C 7,2 km/h (2 Bft)
04/12/2011 05:15 10,8 C 96 % 1013,5 hPa 0,0 mm 9,4 km/h (2 Bft) O 270 0 min 0 W/m 10,2 C 10,8 C 9,4 km/h (2 Bft)
04/12/2011 05:20 10,8 C 96 % 1013,7 hPa 0,0 mm 7,6 km/h (2 Bft) SO 225 0 min 0 W/m 10,2 C 10,8 C 10,4 km/h (2 Bft)
04/12/2011 05:25 10,8 C 96 % 1013,7 hPa 0,1 mm 5,4 km/h (2 Bft) SO 225 0 min 0 W/m 10,2 C 10,8 C 9,4 km/h (2 Bft)
04/12/2011 05:30 10,8 C 96 % 1013,7 hPa 0,0 mm 6,5 km/h (2 Bft) O-SO 247 0 min 0 W/m 10,2 C 10,8 C 10,1 km/h (2 Bft)
04/12/2011 05:35 10,8 C 96 % 1013,6 hPa 0,0 mm 7,2 km/h (2 Bft) S-SO 202 0 min 0 W/m 10,2 C 10,8 C 7,9 km/h (2 Bft)
04/12/2011 05:40 10,8 C 96 % 1013,7 hPa 0,0 mm 1,8 km/h (1 Bft) SO 225 0 min 0 W/m 10,2 C 10,8 C 3,6 km/h (1 Bft)
04/12/2011 05:45 10,8 C 96 % 1013,7 hPa 0,0 mm 10,1 km/h (2 Bft) S-SO 202 0 min 0 W/m 10,2 C 10,8 C 16,6 km/h (3 Bft)
04/12/2011 05:50 10,8 C 96 % 1013,6 hPa 0,0 mm 9,0 km/h (2 Bft) S-SO 202 0 min 0 W/m 10,2 C 10,8 C 11,2 km/h (2 Bft)
04/12/2011 05:55 10,9 C 96 % 1013,7 hPa 0,0 mm 6,1 km/h (2 Bft) O-SO 247 0 min 0 W/m 10,3 C 10,9 C 10,4 km/h (2 Bft)
04/12/2011 06:00 10,9 C 96 % 1013,7 hPa 0,0 mm 5,8 km/h (2 Bft) S-SO 202 0 min 0 W/m 10,3 C 10,9 C 10,8 km/h (2 Bft)
04/12/2011 06:05 10,9 C 96 % 1013,6 hPa 0,0 mm 7,2 km/h (2 Bft) SO 225 0 min 0 W/m 10,3 C 10,9 C 9,4 km/h (2 Bft)
04/12/2011 06:10 10,9 C 96 % 1013,6 hPa 0,0 mm 5,8 km/h (2 Bft) SO 225 0 min 0 W/m 10,3 C 10,9 C 9,4 km/h (2 Bft)
04/12/2011 06:15 10,9 C 96 % 1013,6 hPa 0,0 mm 5,0 km/h (1 Bft) SO 225 0 min 0 W/m 10,3 C 10,9 C 9,0 km/h (2 Bft)
04/12/2011 06:20 10,9 C 96 % 1013,6 hPa 0,0 mm 5,4 km/h (2 Bft) SO 225 0 min 0 W/m 10,3 C 10,9 C 10,8 km/h (2 Bft)
04/12/2011 06:25 10,9 C 96 % 1013,7 hPa 0,1 mm 4,3 km/h (1 Bft) SO 225 0 min 0 W/m 10,3 C 10,9 C 7,6 km/h (2 Bft)
04/12/2011 06:30 10,9 C 96 % 1013,7 hPa 0,0 mm 2,5 km/h (1 Bft) SO 225 0 min 0 W/m 10,3 C 10,9 C 3,6 km/h (1 Bft)
04/12/2011 06:35 10,9 C 96 % 1013,8 hPa 0,0 mm 6,5 km/h (2 Bft) SO 225 0 min 0 W/m 10,3 C 10,9 C 9,4 km/h (2 Bft)
04/12/2011 06:40 10,9 C 96 % 1013,7 hPa 0,0 mm 2,2 km/h (1 Bft) S-SO 202 0 min 0 W/m 10,3 C 10,9 C 4,0 km/h (1 Bft)
04/12/2011 06:45 10,9 C 96 % 1013,7 hPa 0,0 mm 2,9 km/h (1 Bft) SO 225 0 min 0 W/m 10,3 C 10,9 C 8,6 km/h (2 Bft)
04/12/2011 06:50 10,9 C 96 % 1013,7 hPa 0,1 mm 4,0 km/h (1 Bft) SO 225 0 min 0 W/m 10,3 C 10,9 C 4,0 km/h (1 Bft)
04/12/2011 06:55 10,9 C 96 % 1013,8 hPa 0,0 mm 2,5 km/h (1 Bft) SO 225 0 min 0 W/m 10,3 C 10,9 C 6,5 km/h (2 Bft)
04/12/2011 07:00 10,9 C 96 % 1013,7 hPa 0,1 mm 3,2 km/h (1 Bft) O-SO 247 0 min 0 W/m 10,3 C 10,9 C 8,6 km/h (2 Bft)
04/12/2011 07:05 10,9 C 96 % 1013,7 hPa 0,0 mm 2,9 km/h (1 Bft) SO 225 0 min 0 W/m 10,3 C 10,9 C 4,3 km/h (1 Bft)
04/12/2011 07:10 10,9 C 96 % 1013,7 hPa 0,0 mm 2,9 km/h (1 Bft) SO 225 0 min 0 W/m 10,3 C 10,9 C 7,6 km/h (2 Bft)
04/12/2011 07:15 10,9 C 96 % 1013,7 hPa 0,0 mm 5,4 km/h (2 Bft) SO 225 0 min 0 W/m 10,3 C 10,9 C 8,3 km/h (2 Bft)
04/12/2011 07:20 11,1 C 96 % 1013,6 hPa 0,0 mm 7,2 km/h (2 Bft) S 180 0 min 0 W/m 10,5 C 11,1 C 7,2 km/h (2 Bft)
04/12/2011 07:25 11,1 C 96 % 1013,6 hPa 0,0 mm 4,0 km/h (1 Bft) SO 225 0 min 0 W/m 10,5 C 11,1 C 6,8 km/h (2 Bft)
04/12/2011 07:30 11,1 C 96 % 1013,6 hPa 0,0 mm 4,7 km/h (1 Bft) O-SO 247 0 min 0 W/m 10,5 C 11,1 C 7,9 km/h (2 Bft)
04/12/2011 07:35 11,1 C 96 % 1013,7 hPa 0,1 mm 4,3 km/h (1 Bft) SO 225 0 min 0 W/m 10,5 C 11,1 C 7,6 km/h (2 Bft)
04/12/2011 07:40 11,1 C 96 % 1013,8 hPa 0,0 mm 5,4 km/h (2 Bft) O-SO 247 0 min 0 W/m 10,5 C 11,1 C 12,2 km/h (2 Bft)
04/12/2011 07:45 11,1 C 96 % 1013,8 hPa 0,0 mm 6,5 km/h (2 Bft) SO 225 0 min 0 W/m 10,5 C 11,1 C 10,1 km/h (2 Bft)
04/12/2011 07:50 11,1 C 96 % 1013,8 hPa 0,0 mm 4,3 km/h (1 Bft) S-SO 202 0 min 0 W/m 10,5 C 11,1 C 6,8 km/h (2 Bft)
04/12/2011 07:55 11,1 C 96 % 1013,8 hPa 0,0 mm 2,9 km/h (1 Bft) O 270 0 min 0 W/m 10,5 C 11,1 C 7,2 km/h (2 Bft)
04/12/2011 08:00 11,1 C 96 % 1013,5 hPa 0,0 mm 2,9 km/h (1 Bft) O-SO 247 0 min 0 W/m 10,5 C 11,1 C 9,0 km/h (2 Bft)
04/12/2011 08:05 11,1 C 96 % 1013,5 hPa 0,0 mm 5,8 km/h (2 Bft) SO 225 0 min 0 W/m 10,5 C 11,1 C 6,5 km/h (2 Bft)
04/12/2011 08:10 11,2 C 96 % 1013,7 hPa 0,0 mm 4,7 km/h (1 Bft) O-SO 247 0 min 0 W/m 10,6 C 11,2 C 5,8 km/h (2 Bft)
04/12/2011 08:15 11,2 C 96 % 1013,7 hPa 0,1 mm 4,7 km/h (1 Bft) S-SO 202 0 min 0 W/m 10,6 C 11,2 C 7,6 km/h (2 Bft)
04/12/2011 08:20 11,2 C 96 % 1013,7 hPa 0,1 mm 2,2 km/h (1 Bft) SO 225 0 min 0 W/m 10,6 C 11,2 C 4,3 km/h (1 Bft)
04/12/2011 08:25 11,2 C 96 % 1013,8 hPa 0,0 mm 2,5 km/h (1 Bft) O-SO 247 0 min 0 W/m 10,6 C 11,2 C 3,6 km/h (1 Bft)
04/12/2011 08:30 11,2 C 96 % 1013,8 hPa 0,0 mm 2,9 km/h (1 Bft) SO 225 0 min 0 W/m 10,6 C 11,2 C 4,3 km/h (1 Bft)
04/12/2011 08:35 11,2 C 96 % 1013,8 hPa 0,0 mm 9,0 km/h (2 Bft) SO 225 0 min 0 W/m 10,6 C 11,2 C 12,2 km/h (2 Bft)
04/12/2011 08:40 11,2 C 96 % 1013,9 hPa 0,0 mm 8,3 km/h (2 Bft) O-SO 247 0 min 0 W/m 10,6 C 11,2 C 10,8 km/h (2 Bft)
04/12/2011 08:45 11,2 C 96 % 1014,0 hPa 0,1 mm 9,7 km/h (2 Bft) SO 225 0 min 0 W/m 10,6 C 11,2 C 15,8 km/h (3 Bft)
04/12/2011 08:50 11,2 C 96 % 1013,9 hPa 0,0 mm 3,2 km/h (1 Bft) SO 225 0 min 0 W/m 10,6 C 11,2 C 7,9 km/h (2 Bft)
04/12/2011 08:55 11,2 C 96 % 1013,8 hPa 0,0 mm 5,8 km/h (2 Bft) S-SO 202 0 min 0 W/m 10,6 C 11,2 C 9,4 km/h (2 Bft)
04/12/2011 09:00 11,3 C 96 % 1014,0 hPa 0,0 mm 6,5 km/h (2 Bft) SO 225 0 min 0 W/m 10,7 C 11,3 C 14,0 km/h (3 Bft)
04/12/2011 09:05 11,3 C 96 % 1013,9 hPa 0,0 mm 9,7 km/h (2 Bft) S-SO 202 0 min 0 W/m 10,7 C 11,3 C 13,3 km/h (3 Bft)
04/12/2011 09:10 11,3 C 96 % 1013,9 hPa 0,1 mm 3,2 km/h (1 Bft) O 270 0 min 0 W/m 10,7 C 11,3 C 3,2 km/h (1 Bft)
04/12/2011 09:15 11,3 C 96 % 1013,9 hPa 0,0 mm 3,6 km/h (1 Bft) S-SO 202 0 min 0 W/m 10,7 C 11,3 C 8,3 km/h (2 Bft)
04/12/2011 09:20 11,3 C 96 % 1013,9 hPa 0,0 mm 6,5 km/h (2 Bft) SO 225 0 min 0 W/m 10,7 C 11,3 C 6,5 km/h (2 Bft)
04/12/2011 09:25 11,3 C 96 % 1014,0 hPa 0,0 mm 5,8 km/h (2 Bft) S-SO 202 0 min 0 W/m 10,7 C 11,3 C 10,8 km/h (2 Bft)
04/12/2011 09:30 11,4 C 96 % 1014,0 hPa 0,0 mm 6,5 km/h (2 Bft) SO 225 0 min 0 W/m 10,8 C 11,4 C 8,3 km/h (2 Bft)
04/12/2011 09:35 11,4 C 96 % 1014,0 hPa 0,0 mm 2,2 km/h (1 Bft) SO 225 0 min 0 W/m 10,8 C 11,4 C 6,1 km/h (2 Bft)
04/12/2011 09:40 11,4 C 96 % 1014,1 hPa 0,0 mm 4,3 km/h (1 Bft) S-SO 202 0 min 0 W/m 10,8 C 11,4 C 4,3 km/h (1 Bft)
04/12/2011 09:45 11,4 C 96 % 1014,0 hPa 0,0 mm 6,1 km/h (2 Bft) O-SO 247 0 min 0 W/m 10,8 C 11,4 C 8,6 km/h (2 Bft)
04/12/2011 09:50 11,4 C 96 % 1014,1 hPa 0,0 mm 9,7 km/h (2 Bft) O-SO 247 0 min 0 W/m 10,8 C 11,4 C 17,3 km/h (3 Bft)
04/12/2011 09:55 11,4 C 96 % 1014,1 hPa 0,0 mm 2,9 km/h (1 Bft) O-SO 247 0 min 0 W/m 10,8 C 11,4 C 3,6 km/h (1 Bft)
04/12/2011 10:00 11,4 C 96 % 1014,1 hPa 0,1 mm 5,0 km/h (1 Bft) O-SO 247 0 min 0 W/m 10,8 C 11,4 C 6,1 km/h (2 Bft)
04/12/2011 10:05 11,5 C 96 % 1014,0 hPa 0,0 mm 8,6 km/h (2 Bft) S-SO 202 0 min 0 W/m 10,9 C 11,5 C 16,2 km/h (3 Bft)
04/12/2011 10:10 11,5 C 96 % 1014,0 hPa 0,0 mm 6,1 km/h (2 Bft) SO 225 0 min 0 W/m 10,9 C 11,5 C 11,5 km/h (2 Bft)
04/12/2011 10:15 11,5 C 96 % 1013,9 hPa 0,0 mm 7,6 km/h (2 Bft) O-SO 247 0 min 0 W/m 10,9 C 11,5 C 15,1 km/h (3 Bft)
04/12/2011 10:20 11,5 C 96 % 1014,1 hPa 0,0 mm 7,6 km/h (2 Bft) SO 225 0 min 0 W/m 10,9 C 11,5 C 12,2 km/h (2 Bft)
04/12/2011 10:25 11,5 C 96 % 1014,2 hPa 0,0 mm 4,3 km/h (1 Bft) S-SO 202 0 min 0 W/m 10,9 C 11,5 C 7,2 km/h (2 Bft)
04/12/2011 10:30 11,6 C 96 % 1014,2 hPa 0,0 mm 4,7 km/h (1 Bft) O-SO 247 0 min 0 W/m 11,0 C 11,6 C 4,7 km/h (1 Bft)
04/12/2011 10:35 11,6 C 96 % 1014,3 hPa 0,0 mm 6,5 km/h (2 Bft) S-SO 202 0 min 0 W/m 11,0 C 11,6 C 10,8 km/h (2 Bft)
04/12/2011 10:40 11,6 C 96 % 1013,9 hPa 0,0 mm 8,3 km/h (2 Bft) SO 225 0 min 0 W/m 11,0 C 11,6 C 12,6 km/h (3 Bft)
04/12/2011 10:45 11,6 C 96 % 1013,8 hPa 0,0 mm 10,4 km/h (2 Bft) S-SO 202 0 min 0 W/m 11,0 C 11,6 C 19,1 km/h (3 Bft)
04/12/2011 10:50 11,7 C 96 % 1014,0 hPa 0,0 mm 7,2 km/h (2 Bft) O-SO 247 0 min 0 W/m 11,1 C 11,7 C 13,0 km/h (3 Bft)
04/12/2011 10:55 11,8 C 96 % 1014,0 hPa 0,0 mm 5,0 km/h (1 Bft) SO 225 0 min 0 W/m 11,2 C 11,8 C 10,8 km/h (2 Bft)
04/12/2011 11:00 11,8 C 96 % 1014,0 hPa 0,0 mm 5,0 km/h (1 Bft) O-SO 247 0 min 0 W/m 11,2 C 11,8 C 9,0 km/h (2 Bft)
04/12/2011 11:05 11,8 C 96 % 1014,0 hPa 0,1 mm 10,1 km/h (2 Bft) S-SO 202 0 min 0 W/m 11,2 C 11,8 C 17,3 km/h (3 Bft)
04/12/2011 11:10 11,8 C 96 % 1013,9 hPa 0,0 mm 10,4 km/h (2 Bft) SO 225 0 min 0 W/m 11,2 C 11,8 C 15,5 km/h (3 Bft)
04/12/2011 11:15 11,8 C 96 % 1013,9 hPa 0,0 mm 8,3 km/h (2 Bft) SO 225 0 min 0 W/m 11,2 C 11,8 C 10,8 km/h (2 Bft)
04/12/2011 11:20 11,8 C 96 % 1013,9 hPa 0,0 mm 7,9 km/h (2 Bft) SO 225 0 min 0 W/m 11,2 C 11,8 C 13,0 km/h (3 Bft)
04/12/2011 11:25 11,8 C 96 % 1013,8 hPa 0,0 mm 7,9 km/h (2 Bft) S-SO 202 0 min 0 W/m 11,2 C 11,8 C 10,4 km/h (2 Bft)
04/12/2011 11:30 11,8 C 96 % 1013,7 hPa 0,0 mm 9,0 km/h (2 Bft) SO 225 0 min 0 W/m 11,2 C 11,8 C 10,4 km/h (2 Bft)
04/12/2011 11:35 11,8 C 96 % 1013,7 hPa 0,0 mm 5,4 km/h (2 Bft) O-SO 247 0 min 0 W/m 11,2 C 11,8 C 9,4 km/h (2 Bft)
04/12/2011 11:40 11,9 C 96 % 1013,7 hPa 0,0 mm 9,7 km/h (2 Bft) O-SO 247 0 min 0 W/m 11,3 C 11,9 C 12,2 km/h (2 Bft)
04/12/2011 11:45 11,9 C 96 % 1013,6 hPa 0,0 mm 9,7 km/h (2 Bft) S-SO 202 0 min 0 W/m 11,3 C 11,9 C 16,2 km/h (3 Bft)
04/12/2011 11:50 11,9 C 96 % 1013,6 hPa 0,0 mm 6,5 km/h (2 Bft) S-SO 202 0 min 0 W/m 11,3 C 11,9 C 10,8 km/h (2 Bft)
04/12/2011 11:55 11,9 C 96 % 1013,6 hPa 0,1 mm 6,1 km/h (2 Bft) S-SO 202 0 min 0 W/m 11,3 C 11,9 C 6,1 km/h (2 Bft)
04/12/2011 12:00 11,9 C 96 % 1013,5 hPa 0,0 mm 10,8 km/h (2 Bft) SO 225 0 min 0 W/m 11,3 C 11,9 C 17,6 km/h (3 Bft)
04/12/2011 12:05 12,0 C 96 % 1013,4 hPa 0,0 mm 7,9 km/h (2 Bft) SO 225 0 min 0 W/m 11,4 C 12,0 C 13,3 km/h (3 Bft)
04/12/2011 12:10 12,1 C 96 % 1013,4 hPa 0,0 mm 6,8 km/h (2 Bft) S-SO 202 0 min 0 W/m 11,5 C 12,1 C 12,6 km/h (3 Bft)
04/12/2011 12:15 12,1 C 96 % 1013,3 hPa 0,0 mm 10,8 km/h (2 Bft) O-SO 247 0 min 0 W/m 11,5 C 12,1 C 21,2 km/h (4 Bft)
04/12/2011 12:20 12,1 C 95 % 1013,2 hPa 0,0 mm 6,1 km/h (2 Bft) S-SO 202 0 min 0 W/m 11,3 C 12,1 C 9,4 km/h (2 Bft)
04/12/2011 12:25 12,1 C 95 % 1013,0 hPa 0,0 mm 7,2 km/h (2 Bft) O-SO 247 0 min 0 W/m 11,3 C 12,1 C 10,1 km/h (2 Bft)
04/12/2011 12:30 12,2 C 95 % 1013,1 hPa 0,0 mm 6,5 km/h (2 Bft) SO 225 0 min 0 W/m 11,4 C 12,2 C 9,4 km/h (2 Bft)
04/12/2011 12:35 12,1 C 95 % 1012,9 hPa 0,0 mm 4,3 km/h (1 Bft) S-SO 202 0 min 0 W/m 11,3 C 12,1 C 4,7 km/h (1 Bft)
04/12/2011 12:40 12,1 C 95 % 1012,9 hPa 0,0 mm 7,9 km/h (2 Bft) SO 225 0 min 0 W/m 11,3 C 12,1 C 9,4 km/h (2 Bft)
04/12/2011 12:45 12,2 C 95 % 1012,8 hPa 0,0 mm 7,2 km/h (2 Bft) O-SO 247 0 min 0 W/m 11,4 C 12,2 C 9,7 km/h (2 Bft)
04/12/2011 12:50 12,2 C 95 % 1012,6 hPa 0,0 mm 7,2 km/h (2 Bft) S-SO 202 0 min 0 W/m 11,4 C 12,2 C 14,8 km/h (3 Bft)
04/12/2011 12:55 12,3 C 95 % 1012,4 hPa 0,0 mm 9,0 km/h (2 Bft) SO 225 0 min 0 W/m 11,5 C 12,3 C 13,0 km/h (3 Bft)
04/12/2011 13:00 12,3 C 95 % 1012,4 hPa 0,0 mm 6,8 km/h (2 Bft) S-SO 202 0 min 0 W/m 11,5 C 12,3 C 7,9 km/h (2 Bft)
04/12/2011 13:05 12,3 C 95 % 1012,4 hPa 0,0 mm 5,4 km/h (2 Bft) SO 225 0 min 0 W/m 11,5 C 12,3 C 9,0 km/h (2 Bft)
04/12/2011 13:10 12,4 C 95 % 1012,4 hPa 0,0 mm 5,8 km/h (2 Bft) SO 225 0 min 0 W/m 11,6 C 12,4 C 5,8 km/h (2 Bft)
04/12/2011 13:15 12,4 C 95 % 1012,4 hPa 0,0 mm 8,3 km/h (2 Bft) S-SO 202 0 min 0 W/m 11,6 C 12,4 C 12,6 km/h (3 Bft)
04/12/2011 13:20 12,3 C 95 % 1012,3 hPa 0,0 mm 5,4 km/h (2 Bft) SO 225 0 min 0 W/m 11,5 C 12,3 C 7,2 km/h (2 Bft)
04/12/2011 13:25 12,3 C 94 % 1012,2 hPa 0,0 mm 7,6 km/h (2 Bft) SO 225 0 min 0 W/m 11,4 C 12,3 C 11,9 km/h (2 Bft)
04/12/2011 13:30 12,3 C 94 % 1012,1 hPa 0,0 mm 7,6 km/h (2 Bft) SO 225 0 min 0 W/m 11,4 C 12,3 C 7,6 km/h (2 Bft)
04/12/2011 13:35 12,3 C 94 % 1012,0 hPa 0,0 mm 5,4 km/h (2 Bft) SO 225 0 min 0 W/m 11,4 C 12,3 C 10,1 km/h (2 Bft)
04/12/2011 13:40 12,3 C 94 % 1012,0 hPa 0,0 mm 10,4 km/h (2 Bft) S-SO 202 0 min 0 W/m 11,4 C 12,3 C 15,5 km/h (3 Bft)
04/12/2011 13:45 12,3 C 94 % 1011,9 hPa 0,0 mm 11,2 km/h (2 Bft) SO 225 0 min 0 W/m 11,4 C 12,3 C 15,5 km/h (3 Bft)
04/12/2011 13:50 12,3 C 94 % 1011,9 hPa 0,0 mm 7,2 km/h (2 Bft) O 270 0 min 0 W/m 11,4 C 12,3 C 16,6 km/h (3 Bft)
04/12/2011 13:55 12,3 C 94 % 1011,9 hPa 0,0 mm 4,7 km/h (1 Bft) O-SO 247 0 min 0 W/m 11,4 C 12,3 C 9,7 km/h (2 Bft)
04/12/2011 14:00 12,4 C 94 % 1011,8 hPa 0,0 mm 10,8 km/h (2 Bft) S 180 0 min 0 W/m 11,5 C 12,4 C 10,8 km/h (2 Bft)
04/12/2011 14:05 12,4 C 94 % 1011,7 hPa 0,0 mm 9,0 km/h (2 Bft) O-SO 247 0 min 0 W/m 11,5 C 12,4 C 9,7 km/h (2 Bft)
04/12/2011 14:10 12,5 C 94 % 1011,7 hPa 0,0 mm 10,8 km/h (2 Bft) S-SO 202 0 min 0 W/m 11,6 C 12,5 C 18,7 km/h (3 Bft)
04/12/2011 14:15 12,5 C 94 % 1011,6 hPa 0,0 mm 7,6 km/h (2 Bft) S-SO 202 0 min 0 W/m 11,6 C 12,5 C 10,4 km/h (2 Bft)
04/12/2011 14:20 12,5 C 94 % 1011,5 hPa 0,0 mm 5,8 km/h (2 Bft) S-SO 202 0 min 0 W/m 11,6 C 12,5 C 10,1 km/h (2 Bft)
04/12/2011 14:25 12,5 C 94 % 1011,5 hPa 0,1 mm 11,2 km/h (2 Bft) SO 225 0 min 0 W/m 11,6 C 12,5 C 15,5 km/h (3 Bft)
04/12/2011 14:30 12,4 C 94 % 1011,3 hPa 0,0 mm 4,3 km/h (1 Bft) O-SO 247 0 min 0 W/m 11,5 C 12,4 C 7,9 km/h (2 Bft)
04/12/2011 14:35 12,3 C 94 % 1011,2 hPa 0,1 mm 7,6 km/h (2 Bft) O-SO 247 0 min 0 W/m 11,4 C 12,3 C 13,7 km/h (3 Bft)
04/12/2011 14:40 12,2 C 95 % 1011,2 hPa 0,1 mm 8,3 km/h (2 Bft) SO 225 0 min 0 W/m 11,4 C 12,2 C 11,9 km/h (2 Bft)
_ Min-Heure 03:30 14:35 14:40 - 05:40 - - - - 03:30 03:30 01:15
Minimum _ 10,4 C 94 % 1011,2 hPa - 1,8 km/h (1 Bft) - - - - 9,6 C 10,4 C 2,9 km/h (1 Bft)
_ Max-Heure 14:25 12:15 01:05 01:25 00:25 - - 14:40 14:40 13:15 14:25 12:15
Maximum _ 12,5 C 96 % 1014,4 hPa 0,2 mm 11,5 km/h
O-SO (2 Bft)
- - 0 min 0 W/m 11,6 C 12,5 C 21,2 km/h
O-SO (4 Bft)
Moyenne _ 11,2 C 96 % 1013,6 hPa #2,5 mm 6,1 km/h (2 Bft) SO - #0 min. 0 W/m 10,5 C 11,2 C 9,6 km/h (2 Bft)
Saint Bonnet de Bellac- Haute Vienne - France